Worthington, MN

4:25 PM CST on December 05, 2019 (GMT -0600)
Worthington Municipal

Weather History for KOTG - October, 2019

Change the Weather History Date:

Saturday, October 19, 2019

  Actual Average Record
Temperature  
Mean Temperature 53 °F -  
Max Temperature 66 °F 55 °F 86 °F (2003)
Min Temperature 41 °F 35 °F 10 °F (1972)
Degree Days  
Heating Degree Days 12    
Growing Degree Days 3 (Base 50)    
Moisture  
Dew Point 38 °F    
Average Humidity 64    
Maximum Humidity 96    
Minimum Humidity 29    
Precipitation  
Precipitation 0.03 in - - ()
Sea Level Pressure  
Sea Level Pressure 29.74 in    
Wind  
Wind Speed 8 mph (WSW)    
Max Wind Speed 15 mph    
Max Gust Speed -    
Visibility 10 miles    
Events Rain    
Averages and records for this station are not official NWS values.
T = Trace of Precipitation, MM = Missing Value Source: NWS Daily Summary

Daily Weather History Graph

Daily Weather History Graph

Search for Another Location

Airport or City:

Astronomy

Oct. 19, 2019 Rise Set
Actual Time 7:41 AM CDT 6:32 PM CDT
Civil Twilight 7:12 AM CDT 7:01 PM CDT
Nautical Twilight 6:38 AM CDT 7:35 PM CDT
Astronomical Twilight 6:05 AM CDT 8:08 PM CDT
Moon 10:34 PM CDT (10/19) 1:22 PM CDT (10/19)
Length of Visible Light 11h 49m
Length of Day
10h 51m
Waning Gibbous, 69% of the Moon is Illuminated
Oct 19
Waning Gibbous
Oct 21
Last Quarter
Oct 27
New
Nov 4
First Quarter
Nov 12
Full

Hourly Weather History & Observations

Time (CDT) Temp. Windchill Dew Point Humidity Pressure Visibility Wind Dir Wind Speed Gust Speed Precip Events Conditions
12:56 AM 48.9 °F - 44.1 °F 83% 29.66 in 10.0 mi WSW 6.9 mph - N/A   Clear
1:56 AM 46.9 °F - 44.1 °F 90% 29.67 in 10.0 mi WSW 8.1 mph - N/A   Clear
2:56 AM 46.0 °F 43.1 °F 43.0 °F 89% 29.67 in 10.0 mi WSW 5.8 mph - N/A   Clear
3:56 AM 46.9 °F - 42.1 °F 83% 29.69 in 10.0 mi SW 4.6 mph - N/A   Overcast
4:56 AM 48.0 °F - 43.0 °F 83% 29.70 in 10.0 mi WSW 3.5 mph - 0.00 in Rain Light Rain
5:56 AM 46.0 °F 43.1 °F 45.0 °F 96% 29.72 in 10.0 mi SSW 5.8 mph - 0.02 in Rain Light Rain
6:56 AM 46.0 °F 42.5 °F 44.1 °F 93% 29.73 in 10.0 mi SSW 6.9 mph - 0.00 in   Clear
7:56 AM 44.1 °F 39.5 °F 42.1 °F 93% 29.75 in 10.0 mi SW 8.1 mph - N/A   Clear
8:56 AM 46.0 °F 42.5 °F 43.0 °F 89% 29.76 in 10.0 mi WSW 6.9 mph - 0.01 in   Clear
9:56 AM 51.1 °F - 43.0 °F 74% 29.77 in 10.0 mi West 11.5 mph - N/A   Clear
10:56 AM 57.9 °F - 42.1 °F 56% 29.77 in 10.0 mi West 10.4 mph - N/A   Clear
11:56 AM 62.1 °F - 37.9 °F 41% 29.76 in 10.0 mi West 13.8 mph - N/A   Clear
12:56 PM 64.0 °F - 36.0 °F 35% 29.75 in 10.0 mi West 13.8 mph - N/A   Clear
1:56 PM 64.0 °F - 36.0 °F 35% 29.74 in 10.0 mi WNW 12.7 mph - N/A   Clear
2:56 PM 64.9 °F - 34.0 °F 32% 29.73 in 10.0 mi WNW 15.0 mph - N/A   Partly Cloudy
3:56 PM 64.9 °F - 32.0 °F 29% 29.72 in 10.0 mi West 15.0 mph - N/A   Clear
4:56 PM 64.0 °F - 30.9 °F 29% 29.73 in 10.0 mi WNW 11.5 mph - N/A   Clear
5:56 PM 60.1 °F - 30.0 °F 32% 29.75 in 10.0 mi West 8.1 mph - N/A   Clear
6:56 PM 53.1 °F - 30.9 °F 43% 29.77 in 10.0 mi WSW 4.6 mph - N/A   Clear
8:56 PM 43.0 °F 40.3 °F 33.1 °F 68% 29.81 in 10.0 mi WSW 4.6 mph - N/A   Clear
10:56 PM 42.1 °F 40.2 °F 32.0 °F 67% 29.79 in 10.0 mi WSW 3.5 mph - N/A   Clear
11:56 PM 41.0 °F - 34.0 °F 76% 29.79 in 10.0 mi Calm Calm - N/A   Scattered Clouds